Time,TemperatureF,DewpointF,PressureIn,WindDirection,WindDirectionDegrees,WindSpeedMPH,WindSpeedGustMPH,Humidity,HourlyPrecipIn,Conditions,Clouds,dailyrainin,SoftwareType,DateUTC
2018-02-19 00:08:00,54.6,51.4,29.82,SSE,154,6.0,6.0,89,0.00,,,0.00,Wunderground v.1.15,2018-02-19 06:08:00,
2018-02-19 00:18:00,55.2,51.7,29.81,East,94,7.0,7.0,88,0.00,,,0.00,Wunderground v.1.15,2018-02-19 06:18:00,
2018-02-19 00:28:00,55.7,52.2,29.81,SE,144,6.0,8.0,88,0.00,,,0.00,Wunderground v.1.15,2018-02-19 06:28:00,
2018-02-19 00:38:00,56.1,52.6,29.81,ESE,111,7.0,8.0,88,0.00,,,0.00,Wunderground v.1.15,2018-02-19 06:38:00,
2018-02-19 00:48:00,56.4,52.6,29.81,East,89,8.0,8.0,87,0.00,,,0.00,Wunderground v.1.15,2018-02-19 06:48:00,
2018-02-19 00:58:00,56.5,52.7,29.80,SSE,161,5.0,5.0,87,0.00,,,0.00,Wunderground v.1.15,2018-02-19 06:58:00,
2018-02-19 01:08:00,56.9,53.1,29.80,ESE,118,6.0,9.0,87,0.00,,,0.00,Wunderground v.1.15,2018-02-19 07:08:00,
2018-02-19 01:18:00,57.2,53.4,29.80,SE,126,6.0,10.0,87,0.00,,,0.00,Wunderground v.1.15,2018-02-19 07:18:00,
2018-02-19 01:23:00,57.3,53.5,29.81,SSE,165,6.0,10.0,87,0.00,,,0.00,Wunderground v.1.15,2018-02-19 07:23:00,
2018-02-19 01:33:00,57.6,53.8,29.80,ESE,113,7.0,11.0,87,0.00,,,0.00,Wunderground v.1.15,2018-02-19 07:33:00,
2018-02-19 01:43:00,58.0,53.8,29.79,SSE,158,8.0,9.0,86,0.00,,,0.00,Wunderground v.1.15,2018-02-19 07:43:00,
2018-02-19 01:53:00,58.3,54.1,29.79,ESE,117,7.0,8.0,86,0.00,,,0.00,Wunderground v.1.15,2018-02-19 07:53:00,
2018-02-19 01:58:00,58.5,54.3,29.80,SSW,198,7.0,7.0,86,0.00,,,0.00,Wunderground v.1.15,2018-02-19 07:58:00,
2018-02-19 02:08:00,58.8,54.6,29.79,SSE,154,6.0,6.0,86,0.00,,,0.00,Wunderground v.1.15,2018-02-19 08:08:00,
2018-02-19 02:18:00,59.3,54.8,29.79,SE,141,8.0,8.0,85,0.00,,,0.00,Wunderground v.1.15,2018-02-19 08:18:00,
2018-02-19 02:23:00,59.4,54.9,29.79,SE,141,9.0,13.0,85,0.00,,,0.00,Wunderground v.1.15,2018-02-19 08:23:00,
2018-02-19 02:33:00,59.7,55.2,29.78,ESE,103,8.0,8.0,85,0.00,,,0.00,Wunderground v.1.15,2018-02-19 08:33:00,
2018-02-19 02:43:00,59.9,55.4,29.78,ESE,102,7.0,11.0,85,0.00,,,0.00,Wunderground v.1.15,2018-02-19 08:43:00,
2018-02-19 02:53:00,59.9,55.4,29.78,ESE,108,5.0,7.0,85,0.00,,,0.00,Wunderground v.1.15,2018-02-19 08:53:00,
2018-02-19 03:03:00,60.4,55.9,29.78,ESE,122,9.0,14.0,85,0.00,,,0.00,Wunderground v.1.15,2018-02-19 09:03:00,
2018-02-19 03:13:00,60.7,56.2,29.77,ESE,115,8.0,14.0,85,0.00,,,0.00,Wunderground v.1.15,2018-02-19 09:13:00,
2018-02-19 03:23:00,60.9,56.4,29.77,ESE,113,7.0,10.0,85,0.00,,,0.00,Wunderground v.1.15,2018-02-19 09:23:00,
2018-02-19 03:28:00,60.8,56.3,29.77,SE,132,7.0,18.0,85,0.00,,,0.00,Wunderground v.1.15,2018-02-19 09:28:00,
2018-02-19 03:33:00,60.8,56.3,29.77,SE,129,8.0,18.0,85,0.00,,,0.00,Wunderground v.1.15,2018-02-19 09:33:00,
2018-02-19 03:38:00,60.6,56.1,29.77,SSE,148,8.0,11.0,85,0.00,,,0.00,Wunderground v.1.15,2018-02-19 09:38:00,
2018-02-19 03:48:00,60.0,55.5,29.78,ESE,109,8.0,8.0,85,0.00,,,0.00,Wunderground v.1.15,2018-02-19 09:48:00,
2018-02-19 03:58:00,59.9,55.7,29.78,ESE,108,6.0,12.0,86,0.00,,,0.00,Wunderground v.1.15,2018-02-19 09:58:00,
2018-02-19 04:08:00,59.7,55.2,29.78,SE,137,7.0,7.0,85,0.00,,,0.00,Wunderground v.1.15,2018-02-19 10:08:00,
2018-02-19 04:18:00,59.5,55.3,29.78,SE,133,5.0,5.0,86,0.00,,,0.00,Wunderground v.1.15,2018-02-19 10:18:00,
2018-02-19 04:28:00,59.5,55.3,29.77,ESE,108,5.0,5.0,86,0.00,,,0.00,Wunderground v.1.15,2018-02-19 10:28:00,
2018-02-19 04:38:00,59.5,55.3,29.77,ESE,113,4.0,4.0,86,0.00,,,0.00,Wunderground v.1.15,2018-02-19 10:38:00,
2018-02-19 04:48:00,59.4,55.2,29.77,SE,140,6.0,6.0,86,0.00,,,0.00,Wunderground v.1.15,2018-02-19 10:48:00,
2018-02-19 04:58:00,59.2,55.0,29.77,SE,131,5.0,6.0,86,0.00,,,0.00,Wunderground v.1.15,2018-02-19 10:58:00,
2018-02-19 05:03:00,59.2,55.0,29.77,SE,130,4.0,7.0,86,0.00,,,0.00,Wunderground v.1.15,2018-02-19 11:03:00,
2018-02-19 05:08:00,59.2,55.0,29.77,East,96,4.0,4.0,86,0.00,,,0.00,Wunderground v.1.15,2018-02-19 11:08:00,
2018-02-19 05:18:00,59.4,55.2,29.77,SE,140,3.0,4.0,86,0.00,,,0.00,Wunderground v.1.15,2018-02-19 11:18:00,
2018-02-19 05:28:00,59.5,55.6,29.76,SE,141,4.0,4.0,87,0.00,,,0.00,Wunderground v.1.15,2018-02-19 11:28:00,
2018-02-19 05:38:00,59.6,55.7,29.75,ESE,120,4.0,4.0,87,0.00,,,0.00,Wunderground v.1.15,2018-02-19 11:38:00,
2018-02-19 05:48:00,59.9,56.0,29.76,SE,135,5.0,5.0,87,0.00,,,0.00,Wunderground v.1.15,2018-02-19 11:48:00,
2018-02-19 05:53:00,60.0,55.8,29.76,SE,135,4.0,5.0,86,0.00,,,0.00,Wunderground v.1.15,2018-02-19 11:53:00,
2018-02-19 06:03:00,60.1,55.9,29.76,East,87,5.0,6.0,86,0.00,,,0.00,Wunderground v.1.15,2018-02-19 12:03:00,
2018-02-19 06:13:00,59.9,55.7,29.76,West,269,5.0,8.0,86,0.00,,,0.00,Wunderground v.1.15,2018-02-19 12:13:00,
2018-02-19 06:18:00,59.8,55.6,29.76,ESE,107,5.0,5.0,86,0.00,,,0.00,Wunderground v.1.15,2018-02-19 12:18:00,
2018-02-19 06:23:00,59.7,55.5,29.76,SSE,157,5.0,8.0,86,0.00,,,0.00,Wunderground v.1.15,2018-02-19 12:23:00,
2018-02-19 06:33:00,59.7,55.5,29.76,East,101,6.0,7.0,86,0.00,,,0.00,Wunderground v.1.15,2018-02-19 12:33:00,
2018-02-19 06:43:00,59.6,55.7,29.76,ENE,76,5.0,9.0,87,0.00,,,0.00,Wunderground v.1.15,2018-02-19 12:43:00,
2018-02-19 06:53:00,59.8,55.6,29.76,ESE,122,7.0,10.0,86,0.00,,,0.00,Wunderground v.1.15,2018-02-19 12:53:00,
2018-02-19 06:58:00,59.7,55.8,29.76,ESE,106,5.0,8.0,87,0.00,,,0.00,Wunderground v.1.15,2018-02-19 12:58:00,
2018-02-19 07:08:00,59.7,56.1,29.77,ESE,122,7.0,8.0,88,0.00,,,0.01,Wunderground v.1.15,2018-02-19 13:08:00,
2018-02-19 07:18:00,59.3,56.1,29.77,SSE,148,6.0,6.0,89,0.00,,,0.01,Wunderground v.1.15,2018-02-19 13:18:00,
2018-02-19 07:28:00,59.3,56.1,29.76,ESE,113,6.0,8.0,89,0.00,,,0.01,Wunderground v.1.15,2018-02-19 13:28:00,
2018-02-19 07:38:00,59.5,56.3,29.76,ESE,110,8.0,8.0,89,0.00,,,0.01,Wunderground v.1.15,2018-02-19 13:38:00,
2018-02-19 07:43:00,59.6,56.4,29.76,SE,126,7.0,8.0,89,0.00,,,0.01,Wunderground v.1.15,2018-02-19 13:43:00,
2018-02-19 07:53:00,60.0,56.4,29.77,ESE,110,7.0,8.0,88,0.00,,,0.01,Wunderground v.1.15,2018-02-19 13:53:00,
2018-02-19 08:03:00,60.5,56.6,29.78,ESE,118,8.0,11.0,87,0.00,,,0.01,Wunderground v.1.15,2018-02-19 14:03:00,
2018-02-19 08:08:00,60.6,56.7,29.78,SE,128,7.0,9.0,87,0.00,,,0.01,Wunderground v.1.15,2018-02-19 14:08:00,
2018-02-19 08:13:00,60.9,56.7,29.78,ESE,115,7.0,9.0,86,0.00,,,0.01,Wunderground v.1.15,2018-02-19 14:13:00,
2018-02-19 08:18:00,61.1,56.9,29.79,ESE,112,7.0,8.0,86,0.00,,,0.01,Wunderground v.1.15,2018-02-19 14:18:00,
2018-02-19 08:28:00,61.6,57.0,29.78,ESE,115,7.0,7.0,85,0.00,,,0.01,Wunderground v.1.15,2018-02-19 14:28:00,
2018-02-19 08:38:00,61.5,56.9,29.78,ESE,108,6.0,7.0,85,0.00,,,0.01,Wunderground v.1.15,2018-02-19 14:38:00,
2018-02-19 08:48:00,61.6,57.0,29.77,SE,140,8.0,8.0,85,0.00,,,0.02,Wunderground v.1.15,2018-02-19 14:48:00,
2018-02-19 08:58:00,61.3,57.1,29.77,ESE,120,8.0,12.0,86,0.00,,,0.02,Wunderground v.1.15,2018-02-19 14:58:00,
2018-02-19 09:08:00,61.1,57.2,29.76,ESE,107,10.0,10.0,87,0.04,,,0.03,Wunderground v.1.15,2018-02-19 15:08:00,
2018-02-19 09:18:00,60.5,57.6,29.74,NNE,24,9.0,9.0,90,0.22,,,0.06,Wunderground v.1.15,2018-02-19 15:18:00,
2018-02-19 09:28:00,60.3,57.7,29.78,ENE,61,7.0,7.0,91,0.06,,,0.07,Wunderground v.1.15,2018-02-19 15:28:00,
2018-02-19 09:38:00,60.5,57.6,29.77,South,188,8.0,8.0,90,0.00,,,0.07,Wunderground v.1.15,2018-02-19 15:38:00,
2018-02-19 09:48:00,60.6,57.7,29.78,SE,129,7.0,7.0,90,0.00,,,0.07,Wunderground v.1.15,2018-02-19 15:48:00,
2018-02-19 09:58:00,60.9,57.9,29.78,SE,137,6.0,6.0,90,0.00,,,0.07,Wunderground v.1.15,2018-02-19 15:58:00,
2018-02-19 10:08:00,61.1,57.8,29.76,SE,129,5.0,6.0,89,0.00,,,0.07,Wunderground v.1.15,2018-02-19 16:08:00,
2018-02-19 10:13:00,61.1,58.1,29.77,SE,146,5.0,6.0,90,0.00,,,0.07,Wunderground v.1.15,2018-02-19 16:13:00,
2018-02-19 10:23:00,61.5,58.2,29.79,SW,233,6.0,8.0,89,0.00,,,0.07,Wunderground v.1.15,2018-02-19 16:23:00,
2018-02-19 10:33:00,61.7,58.4,29.79,SE,125,6.0,7.0,89,0.00,,,0.07,Wunderground v.1.15,2018-02-19 16:33:00,
2018-02-19 10:43:00,61.6,58.0,29.80,ESE,113,7.0,12.0,88,0.00,,,0.07,Wunderground v.1.15,2018-02-19 16:43:00,
2018-02-19 10:53:00,61.3,57.7,29.80,ESE,111,6.0,10.0,88,0.00,,,0.07,Wunderground v.1.15,2018-02-19 16:53:00,
2018-02-19 10:58:00,61.2,57.6,29.80,ESE,120,5.0,6.0,88,0.00,,,0.08,Wunderground v.1.15,2018-02-19 16:58:00,
2018-02-19 11:08:00,60.7,57.7,29.80,East,100,4.0,4.0,90,0.06,,,0.09,Wunderground v.1.15,2018-02-19 17:08:00,
2018-02-19 11:18:00,60.2,57.6,29.79,SE,126,4.0,6.0,91,0.08,,,0.10,Wunderground v.1.15,2018-02-19 17:18:00,
2018-02-19 11:28:00,59.9,57.6,29.80,ESE,105,5.0,8.0,92,0.81,,,0.22,Wunderground v.1.15,2018-02-19 17:28:00,
2018-02-19 11:38:00,59.6,57.6,29.81,SSE,151,3.0,6.0,93,0.17,,,0.33,Wunderground v.1.15,2018-02-19 17:38:00,
2018-02-19 11:43:00,59.5,57.5,29.81,ESE,120,2.0,6.0,93,0.19,,,0.35,Wunderground v.1.15,2018-02-19 17:43:00,
2018-02-19 11:53:00,59.4,57.4,29.81,SE,136,2.0,4.0,93,0.11,,,0.37,Wunderground v.1.15,2018-02-19 17:53:00,
2018-02-19 12:03:00,59.3,57.6,29.80,ENE,60,2.0,4.0,94,0.17,,,0.39,Wunderground v.1.15,2018-02-19 18:03:00,
2018-02-19 12:13:00,59.3,57.6,29.80,SW,219,2.0,4.0,94,0.20,,,0.42,Wunderground v.1.15,2018-02-19 18:13:00,
2018-02-19 12:23:00,59.4,57.7,29.79,ESE,109,2.0,5.0,94,0.07,,,0.43,Wunderground v.1.15,2018-02-19 18:23:00,
2018-02-19 12:33:00,59.9,58.2,29.79,SE,126,3.0,4.0,94,0.11,,,0.45,Wunderground v.1.15,2018-02-19 18:33:00,
2018-02-19 12:43:00,60.1,58.4,29.78,ESE,117,2.0,4.0,94,0.04,,,0.45,Wunderground v.1.15,2018-02-19 18:43:00,
2018-02-19 12:53:00,60.5,58.8,29.78,ESE,120,2.0,4.0,94,0.04,,,0.46,Wunderground v.1.15,2018-02-19 18:53:00,
2018-02-19 13:03:00,60.8,59.1,29.77,ENE,65,1.0,4.0,94,0.00,,,0.46,Wunderground v.1.15,2018-02-19 19:03:00,
2018-02-19 13:13:00,61.1,59.4,29.76,East,87,2.0,6.0,94,0.00,,,0.46,Wunderground v.1.15,2018-02-19 19:13:00,
2018-02-19 13:23:00,62.1,60.4,29.75,SE,127,3.0,6.0,94,0.00,,,0.46,Wunderground v.1.15,2018-02-19 19:23:00,
2018-02-19 13:33:00,62.9,60.8,29.74,NE,55,3.0,6.0,93,0.00,,,0.46,Wunderground v.1.15,2018-02-19 19:33:00,
2018-02-19 13:43:00,63.9,61.2,29.74,SE,125,4.0,5.0,91,0.00,,,0.46,Wunderground v.1.15,2018-02-19 19:43:00,
2018-02-19 13:53:00,64.7,61.7,29.74,SSE,164,4.0,5.0,90,0.00,,,0.46,Wunderground v.1.15,2018-02-19 19:53:00,
2018-02-19 14:03:00,65.3,61.7,29.74,East,89,6.0,6.0,88,0.00,,,0.46,Wunderground v.1.15,2018-02-19 20:03:00,
2018-02-19 14:08:00,65.5,61.5,29.74,ESE,116,6.0,12.0,87,0.00,,,0.46,Wunderground v.1.15,2018-02-19 20:08:00,
2018-02-19 14:13:00,65.7,61.4,29.74,ESE,117,7.0,12.0,86,0.00,,,0.46,Wunderground v.1.15,2018-02-19 20:13:00,
2018-02-19 14:23:00,65.7,61.4,29.74,ENE,58,5.0,7.0,86,0.00,,,0.46,Wunderground v.1.15,2018-02-19 20:23:00,
2018-02-19 14:28:00,65.6,61.3,29.74,ESE,116,4.0,11.0,86,0.00,,,0.46,Wunderground v.1.15,2018-02-19 20:28:00,
2018-02-19 14:33:00,65.7,61.4,29.74,ESE,103,5.0,11.0,86,0.00,,,0.46,Wunderground v.1.15,2018-02-19 20:33:00,
2018-02-19 14:43:00,65.8,61.2,29.74,ESE,112,6.0,8.0,85,0.00,,,0.46,Wunderground v.1.15,2018-02-19 20:43:00,
2018-02-19 14:53:00,65.7,61.4,29.74,East,101,5.0,6.0,86,0.00,,,0.46,Wunderground v.1.15,2018-02-19 20:53:00,
2018-02-19 14:58:00,65.7,61.1,29.74,East,79,5.0,8.0,85,0.00,,,0.46,Wunderground v.1.15,2018-02-19 20:58:00,
2018-02-19 15:03:00,65.9,61.3,29.74,SSE,162,6.0,8.0,85,0.00,,,0.46,Wunderground v.1.15,2018-02-19 21:03:00,
2018-02-19 15:08:00,66.1,61.1,29.74,East,94,6.0,6.0,84,0.00,,,0.46,Wunderground v.1.15,2018-02-19 21:08:00,
2018-02-19 15:13:00,66.2,61.2,29.74,SE,130,6.0,6.0,84,0.00,,,0.46,Wunderground v.1.15,2018-02-19 21:13:00,
2018-02-19 15:23:00,66.5,61.2,29.74,SE,143,8.0,8.0,83,0.00,,,0.46,Wunderground v.1.15,2018-02-19 21:23:00,
2018-02-19 15:33:00,66.8,61.5,29.74,ESE,118,6.0,9.0,83,0.00,,,0.46,Wunderground v.1.15,2018-02-19 21:33:00,
2018-02-19 15:38:00,66.9,61.2,29.73,SE,129,6.0,6.0,82,0.00,,,0.46,Wunderground v.1.15,2018-02-19 21:38:00,
2018-02-19 15:48:00,67.1,61.1,29.74,SE,136,8.0,8.0,81,0.00,,,0.46,Wunderground v.1.15,2018-02-19 21:48:00,
2018-02-19 15:58:00,67.2,61.2,29.74,East,84,7.0,8.0,81,0.00,,,0.46,Wunderground v.1.15,2018-02-19 21:58:00,
2018-02-19 16:08:00,67.2,61.2,29.74,South,173,8.0,10.0,81,0.00,,,0.46,Wunderground v.1.15,2018-02-19 22:08:00,
2018-02-19 16:13:00,67.4,61.4,29.74,ESE,122,9.0,10.0,81,0.00,,,0.46,Wunderground v.1.15,2018-02-19 22:13:00,
2018-02-19 16:18:00,67.5,61.1,29.74,ESE,115,8.0,8.0,80,0.00,,,0.46,Wunderground v.1.15,2018-02-19 22:18:00,
2018-02-19 16:23:00,67.4,61.0,29.74,ENE,78,7.0,8.0,80,0.00,,,0.46,Wunderground v.1.15,2018-02-19 22:23:00,
2018-02-19 16:33:00,67.3,60.9,29.74,ESE,109,7.0,8.0,80,0.00,,,0.46,Wunderground v.1.15,2018-02-19 22:33:00,
2018-02-19 16:38:00,67.2,60.8,29.75,SE,125,7.0,8.0,80,0.00,,,0.46,Wunderground v.1.15,2018-02-19 22:38:00,
2018-02-19 16:48:00,67.2,60.8,29.75,ESE,112,7.0,8.0,80,0.00,,,0.46,Wunderground v.1.15,2018-02-19 22:48:00,
2018-02-19 16:53:00,67.1,60.7,29.75,SE,146,6.0,10.0,80,0.00,,,0.46,Wunderground v.1.15,2018-02-19 22:53:00,
2018-02-19 16:58:00,67.2,60.8,29.75,ESE,113,7.0,7.0,80,0.00,,,0.46,Wunderground v.1.15,2018-02-19 22:58:00,
2018-02-19 17:08:00,67.3,60.9,29.75,ESE,120,5.0,5.0,80,0.00,,,0.46,Wunderground v.1.15,2018-02-19 23:08:00,
2018-02-19 17:18:00,67.3,60.6,29.75,ESE,103,6.0,6.0,79,0.00,,,0.46,Wunderground v.1.15,2018-02-19 23:18:00,
2018-02-19 17:28:00,67.2,60.5,29.75,East,91,6.0,12.0,79,0.00,,,0.46,Wunderground v.1.15,2018-02-19 23:28:00,
2018-02-19 17:38:00,67.2,60.5,29.75,SSE,148,7.0,7.0,79,0.00,,,0.46,Wunderground v.1.15,2018-02-19 23:38:00,
2018-02-19 17:48:00,67.2,60.5,29.75,ENE,75,8.0,8.0,79,0.00,,,0.46,Wunderground v.1.15,2018-02-19 23:48:00,
2018-02-19 17:58:00,67.1,60.4,29.75,ESE,114,8.0,8.0,79,0.00,,,0.46,Wunderground v.1.15,2018-02-19 23:58:00,
2018-02-19 18:08:00,67.0,60.3,29.75,SE,129,6.0,6.0,79,0.00,,,0.46,Wunderground v.1.15,2018-02-20 00:08:00,
2018-02-19 18:18:00,66.9,60.2,29.76,SE,124,5.0,9.0,79,0.00,,,0.46,Wunderground v.1.15,2018-02-20 00:18:00,
2018-02-19 18:28:00,66.9,60.2,29.76,ESE,102,6.0,6.0,79,0.00,,,0.46,Wunderground v.1.15,2018-02-20 00:28:00,
2018-02-19 18:38:00,66.1,60.4,29.75,SE,143,5.0,6.0,82,0.26,,,0.49,Wunderground v.1.15,2018-02-20 00:38:00,
2018-02-19 18:48:00,65.2,60.2,29.76,SE,145,5.0,5.0,84,0.05,,,0.49,Wunderground v.1.15,2018-02-20 00:48:00,
2018-02-19 18:53:00,65.2,60.2,29.76,East,85,5.0,5.0,84,0.00,,,0.49,Wunderground v.1.15,2018-02-20 00:53:00,
2018-02-19 19:03:00,65.3,60.0,29.78,SE,134,5.0,6.0,83,0.00,,,0.49,Wunderground v.1.15,2018-02-20 01:03:00,
2018-02-19 19:13:00,65.1,60.5,29.79,ESE,102,5.0,13.0,85,0.47,,,0.54,Wunderground v.1.15,2018-02-20 01:13:00,
2018-02-19 19:23:00,64.1,60.5,29.79,SSE,150,7.0,8.0,88,0.24,,,0.58,Wunderground v.1.15,2018-02-20 01:23:00,
2018-02-19 19:33:00,63.0,60.6,29.79,SSE,148,7.0,9.0,92,0.44,,,0.69,Wunderground v.1.15,2018-02-20 01:33:00,
2018-02-19 19:43:00,62.9,60.8,29.80,SE,132,8.0,15.0,93,0.54,,,0.75,Wunderground v.1.15,2018-02-20 01:43:00,
2018-02-19 19:53:00,62.7,60.6,29.80,ESE,116,7.0,7.0,93,0.26,,,0.93,Wunderground v.1.15,2018-02-20 01:53:00,
2018-02-19 20:03:00,62.7,60.6,29.78,East,96,4.0,7.0,93,0.09,,,0.95,Wunderground v.1.15,2018-02-20 02:03:00,
2018-02-19 20:13:00,62.7,60.6,29.78,East,98,4.0,4.0,93,0.04,,,0.96,Wunderground v.1.15,2018-02-20 02:13:00,
2018-02-19 20:23:00,62.6,60.5,29.78,East,79,3.0,4.0,93,0.04,,,0.96,Wunderground v.1.15,2018-02-20 02:23:00,
2018-02-19 20:33:00,63.0,60.6,29.78,SE,127,6.0,6.0,92,0.00,,,0.97,Wunderground v.1.15,2018-02-20 02:33:00,
2018-02-19 20:43:00,62.7,60.3,29.77,East,80,4.0,6.0,92,0.19,,,0.99,Wunderground v.1.15,2018-02-20 02:43:00,
2018-02-19 20:53:00,62.7,60.3,29.78,SE,141,4.0,8.0,92,0.06,,,1.00,Wunderground v.1.15,2018-02-20 02:53:00,